Regional Weather Roundup
Issued by NWS

Home | Current Version | Previous Version | Text Only | Print | Product List | Glossary On
Versions: 1 2 3 4 5 6 7 8 9 10 11 12 13 14 15 16 17 18 19 20 21 22 23 24 25 26 27 28 29 30 31 32 33 34 35 36 37 38 39 40 41 42 43 44 45 46 47 48 49 50
000
ASUS43 KLOT 200508
RWRIL

ILLINOIS REGIONAL WEATHER ROUNDUP
NATIONAL WEATHER SERVICE CHICAGO/ROMEOVILLE IL
1200 AM CDT SUN AUG 20 2017

NOTE: "FAIR" INDICATES FEW OR NO CLOUDS BELOW 12,000 FEET WITH NO
SIGNIFICANT WEATHER AND/OR OBSTRUCTIONS TO VISIBILITY.

* THESE STATIONS ARE NOT UNDER NWS QUALITY CONTROL. THEY ALSO MAY NOT
  REPORT WEATHER SUCH AS PRECIPITATION OR FOG.

ILZ001-002-007-009-015-016-024-200600-
NORTHWEST ILLINOIS

CITY           SKY/WX    TMP DP  RH WIND       PRES   REMARKS
MOLINE         CLEAR     64  61  90 CALM      29.97R
STERLING*      CLEAR     62  61  96 E5        29.98S
SAVANNA*       CLEAR     64  63  97 CALM      29.98R
$$

ILZ003-004-008-010-011-017-018-200600-
NORTH CENTRAL ILLINOIS

CITY           SKY/WX    TMP DP  RH WIND       PRES   REMARKS
ROCKFORD       CLEAR     63  61  93 S3        30.00R
FREEPORT*      CLEAR     61  60  94 CALM      30.01R
ROCHELLE*      CLEAR     59  58  95 CALM      30.00S
DE KALB*       CLEAR     64  59  86 CALM      30.01R
PERU*          CLEAR     67  61  80 SE3       30.00R
$$

ILZ005-006-012>014-019>023-200600-
NORTHEAST ILLINOIS

CITY           SKY/WX    TMP DP  RH WIND       PRES   REMARKS
CHICAGO-OHARE  CLEAR     70  55  59 S3        29.99R
CHICAGO-MIDWAY CLEAR     73  55  53 S3        29.99R
AURORA         CLEAR     61  59  93 CALM      30.00R
LANSING*       CLEAR     65  55  69 CALM      30.00S
JOLIET*        CLEAR     64  62  92 CALM      30.00R
WAUKEGAN       CLEAR     61  59  93 CALM      29.99R
DUPAGE AIRPORT CLEAR     64  62  93 CALM      30.00R
KANKAKEE*      CLEAR     64  63  94 SE3       30.01R
WHEELING       CLEAR     66  60  81 CALM      30.01R
MORRIS*        CLEAR     65  60  86 CALM      29.98S
ROMEOVILLE*    CLEAR     65  59  79 SE3       30.00R
NORTHERLY ISL    N/A     72  57  59 S3          N/A
$$

LMZ740>746-200600-
SOUTHERN LAKE MICHIGAN

STATION/POSITION SKY/WX   TEMP    WIND        PRES    VSBY  WAVE
                          AIR SEA DIR/SP/G                  HT/PER
                          (F)     (DEG/KT/KT) (MB)    (MI)  (FT/S)
SOUTHERN BUOY              72 71  170/  6/  6 1015.6R         1
WILMETTE HARBOR            74 73  160/  6/  8   N/A           1/ 2
HARRISON CRIB              74     170/  8/ 10   N/A
CALUMET HARBOR             72     180/  3/  4 1015.1R
BURNS HARBOR               73     140/  5/  7 1016.3R
MICHIGAN CITY              68     120/  7/  8   N/A
MICHIGAN CITY 6N           71 75  140/  6/  8   N/A           1
ST. JOSEPH                 71 78  150/  8/ 10 1015.8          1
$$

ILZ025>027-034>036-040-047-049-050-058-095>099-200600-
WEST-CENTRAL ILLINOIS

CITY           SKY/WX    TMP DP  RH WIND       PRES   REMARKS
QUINCY         CLEAR     73  67  81 SE7       29.96R
GALESBURG*     CLEAR     67  62  83 E5        29.99R
MACOMB*        CLEAR     65  63  96 SE5       29.99S
JACKSONVILLE*  CLEAR     67  65  93 CALM      29.97R
PITTSFIELD*    CLEAR     70  67  92 CALM      29.98R
$$

ILZ028>032-037-038-041>044-048-051>054-059>061-200600-
CENTRAL ILLINOIS

CITY           SKY/WX    TMP DP  RH WIND       PRES   REMARKS
PONTIAC        PTCLDY    62  61  97 CALM      30.00R
BLOOMINGTON    PTCLDY    67  62  84 SE7       30.01R
DECATUR        CLEAR     67  64  90 CALM      29.99R
PEORIA         CLEAR     70  64  81 E3        29.98R
LACON*         CLEAR     63  60  88 CALM      29.98S
LINCOLN*       CLEAR     67  65  94 CALM      29.99R
SPRINGFIELD    CLEAR     72  67  84 SE6       29.98R
TAYLORVILLE    CLEAR     71  67  88 SE5       29.99R
$$

ILZ033-039-045-046-055>057-062-063-200600-
EAST-CENTRAL ILLINOIS

CITY           SKY/WX    TMP DP  RH WIND       PRES   REMARKS
CHAMPAIGN      CLEAR     65  62  90 E3        30.00R
RANTOUL*       PTCLDY    71  65  83 CALM      30.00R
MATTOON        CLEAR     71  70  96 CALM      29.99R
PARIS*         PTCLDY    68  66  92 CALM      30.01R
$$

ILZ079-100>102-200600-
SOUTHWEST ILLINOIS

CITY           SKY/WX    TMP DP  RH WIND       PRES   REMARKS
ALTON          PTCLDY    70  69  98 CALM      29.98R
BELLEVILLE     CLEAR     74  69  85 CALM      29.98R
CAHOKIA*       CLEAR     77  68  73 S3        29.96R
SPARTA*        PTCLDY    75  71  85 SE3       29.98S
$$

ILZ064>066-069>071-074>076-080>082-084>086-088>090-092>094-200600-
SOUTH-CENTRAL ILLINOIS

CITY           SKY/WX    TMP DP  RH WIND       PRES   REMARKS
CARBONDALE     PTCLDY    73  72  96 CALM      29.98S
CAIRO*         PTCLDY    73  71  93 SE3       29.99R
EFFINGHAM*     CLEAR     68  68 100 CALM      30.01R
MARION         PTCLDY    77  72  83 CALM      29.99S
MT. VERNON       N/A     69  69 100 CALM      29.98S
CENTRALIA*     PTCLDY    71  70  97 CALM      29.98S
SALEM*         CLEAR     74  69  85 CALM      29.98S
METROPOLIS*    PTCLDY    71  70  95 CALM      29.99S
$$

ILZ067-068-072-073-078-083-087-091-200600-
SOUTHEAST ILLINOIS

CITY           SKY/WX    TMP DP  RH WIND       PRES   REMARKS
LAWRENCEVILLE  CLEAR     73  69  87 S3        29.99R
FLORA*         PTCLDY    72  69  92 CALM      29.99S
FAIRFIELD*     CLEAR     69  69 100 CALM      29.97S
HARRISBURG*    PTCLDY    68  67  98 CALM      29.99R
ROBINSON*        N/A     65  65 100 CALM      30.00S FOG
CARMI*         CLEAR     69  69 100 SE3       29.98S FOG
$$

ABBREVIATIONS USED IN REMARKS
   TC - TEMPERATURE IN CELSIUS
  WCI - WIND CHILL INDEX
   HX - HEAT INDEX
  VSB - VISIBILITY
$$





USA.gov is the U.S. government's official web portal to all federal, state and local government web resources and services.